Mount Ida, AR

10:26 AM CST on November 18, 2017 (GMT -0600)
Mount Ida

Weather History for KMWT - November, 2012

Change the Weather History Date:

Wednesday, November 7, 2012

  Actual Average (KHOT) Record (KHOT)
Temperature  
Mean Temperature 49 °F -  
Max Temperature 64 °F 64 °F 81 °F (2004)
Min Temperature 34 °F 40 °F 21 °F (1993)
Degree Days  
Heating Degree Days 16    
Moisture  
Dew Point 34 °F    
Average Humidity 67    
Maximum Humidity 100    
Minimum Humidity 26    
Precipitation  
Precipitation 0.00 in - - ()
Sea Level Pressure  
Sea Level Pressure 30.11 in    
Wind  
Wind Speed 2 mph (NW)    
Max Wind Speed 9 mph    
Max Gust Speed 18 mph    
Visibility 10 miles    
Events      
Averages and records for this station are not official NWS values.
T = Trace of Precipitation, MM = Missing Value Source: NWS Daily Summary

Daily Weather History Graph

Daily Weather History Graph

Search for Another Location

Airport or City:

Trip Planner

Search our weather history database for the weather conditions in past years. The results will help you decide how hot, cold, wet, or windy it might be!

Date:

Astronomy

Nov. 07, 2012 Rise Set
Actual Time 6:40 AM CST 5:14 PM CST
Civil Twilight 6:14 AM CST 5:41 PM CST
Nautical Twilight 5:44 AM CST 6:11 PM CST
Astronomical Twilight 5:14 AM CST 6:40 PM CST
Moon No Moon Rise 1:08 PM CST (11/7)
Length of Visible Light 11h 26m
Length of Day
10h 34m
Last Quarter, 43% of the Moon is Illuminated
Nov 7
Last Quarter
Nov 13
New
Nov 20
First Quarter
Nov 28
Full
Dec 6
Last Quarter

Hourly Weather History & Observations

Time (CST) Temp. Windchill Dew Point Humidity Pressure Visibility Wind Dir Wind Speed Gust Speed Precip Events Conditions
12:53 AM 39.0 °F - 37.9 °F 96% 30.07 in 10.0 mi Calm Calm - N/A   Clear
1:53 AM 37.9 °F 35.5 °F 37.0 °F 97% 30.07 in 10.0 mi West 3.5 mph - N/A   Clear
2:53 AM 37.0 °F - 36.0 °F 96% 30.07 in 10.0 mi Calm Calm - N/A   Clear
3:53 AM 35.1 °F - 35.1 °F 100% 30.07 in 10.0 mi Calm Calm - N/A   Clear
4:53 AM 35.1 °F - 35.1 °F 100% 30.09 in 10.0 mi Calm Calm - N/A   Clear
5:53 AM 34.0 °F - 34.0 °F 100% 30.11 in 10.0 mi Calm Calm - N/A   Clear
6:53 AM 35.1 °F - 34.0 °F 96% 30.12 in 10.0 mi Calm Calm - N/A   Clear
7:53 AM 44.1 °F - 37.9 °F 79% 30.14 in 10.0 mi Calm Calm - N/A   Clear
8:53 AM 52.0 °F - 37.0 °F 57% 30.14 in 10.0 mi Calm Calm - N/A   Clear
9:53 AM 57.0 °F - 33.1 °F 40% 30.14 in 10.0 mi Variable 6.9 mph - N/A   Clear
10:53 AM 59.0 °F - 30.9 °F 35% 30.14 in 10.0 mi NNW 8.1 mph 18.4 mph N/A   Clear
11:53 AM 62.1 °F - 32.0 °F 32% 30.11 in 10.0 mi NNW 8.1 mph - N/A   Clear
12:53 PM 64.0 °F - 30.0 °F 28% 30.08 in 10.0 mi NNW 8.1 mph - N/A   Clear
1:53 PM 64.0 °F - 28.0 °F 26% 30.07 in 10.0 mi North 8.1 mph 18.4 mph N/A   Clear
2:53 PM 64.9 °F - 30.0 °F 27% 30.07 in 10.0 mi NW 9.2 mph - N/A   Clear
3:53 PM 64.0 °F - 28.9 °F 27% 30.08 in 10.0 mi Variable 4.6 mph - N/A   Clear
4:53 PM 60.1 °F - 30.9 °F 33% 30.09 in 10.0 mi Calm Calm - N/A   Clear
5:53 PM 51.1 °F - 33.1 °F 50% 30.10 in 10.0 mi Calm Calm - N/A   Clear
6:53 PM 46.9 °F - 35.1 °F 63% 30.12 in 10.0 mi Calm Calm - N/A   Clear
7:53 PM 43.0 °F - 36.0 °F 76% 30.12 in 10.0 mi Calm Calm - N/A   Clear
8:53 PM 42.1 °F - 36.0 °F 79% 30.13 in 10.0 mi Calm Calm - N/A   Clear
9:53 PM 41.0 °F - 36.0 °F 82% 30.14 in 10.0 mi Calm Calm - N/A   Clear
10:53 PM 39.0 °F - 36.0 °F 89% 30.15 in 10.0 mi Calm Calm - N/A   Clear
11:53 PM 37.0 °F - 35.1 °F 93% 30.15 in 10.0 mi Calm Calm - N/A   Clear